www.pogodaiklimat.ru

ПОГОДА в Форт Силл, OK

  • Прогноз погоды в Форт Силл
  • Монитор погоды в Форт Силл
  • Климат в Форт Силл

АРХИВ ПОГОДЫ в Форт Силл

Время (UTC), дата Ветер
(напр.,м/с)
 
Видим.   Явления Облачность Т
(С)
Тd
(С)
f
(%)
Тe
(С)
Тes
(С)
Комфортность

P
(гПа)

Po
(гПа)
Тmin
(С)
Tmax
(С)
R
(мм)
SD
(см)
08:56 15.06 Ю  16 км    10/0 5100 м
[средняя] 
+24.8  +20.9  79  +31  +31  очень
душно 
1006.3  964.8         
09:56 15.06 В  16 км    8/0 5100 м
[средняя] 
+23.6  +21.1  86  +30  +30  очень
душно 
1007.7  966.1         
12:56 15.06 Ю  8
{11} 
16 км    ясно  +24.5  +22.2  87  +32  +32  очень
душно 
1008.1  966.4         
13:41 15.06 Ю  8
{11} 
16 км    8/8 600 м  +26.0  +23.0  84  +35  +35  очень
душно 
1008.1  966.4         
15:56 15.06 Ю  9
{11} 
16 км    2/2 1050 м  +30.2  +23.6  68  +41  +42  опасность
перегрева 
1007.0  965.5         
16:56 15.06 Ю  8
{13} 
16 км    5/2 1170 м
[средняя верхняя] 
+31.4  +24.2  66  +44  +45  опасность
перегрева 
1007.0  965.5  +23.2  +31.4     
20:56 15.06 Ю  14 км    8/8 1650 м  +32.8  +24.5  62  +46  +46  опасность
перегрева 
1006.0  964.5         
21:56 15.06 Ю  6
{10} 
16 км    5/5 1650 м
[средняя] 
+32.2  +24.2  63  +44  +46  опасность
перегрева 
1005.3  963.8         
23:56 15.06 Ю  16 км    ясно  +30.6  +24.0  68  +42  +43  опасность
перегрева 
1005.4  963.8         
00:56 16.06 ЮВ  16 км    ясно  +28.8  +23.7  74  +39  +40  очень
душно 
1005.1  963.5         
01:56 16.06 ЮВ  16 км    8/5 1500 м
[средняя] 
+28.0  +24.0  79  +39  +39  очень
душно 
1005.4  963.8         
02:22 16.06 СЗ  13
{21} 
5 км  дождь  10/8 1500 м
[средняя] 
                       
02:32 16.06 З  8
{17} 
3 км  гроза с сильным дождем, дымка  10/10 1500 м  +20.0  +19.0  94  +23  +23  комфорт  1011.4  969.4         
02:37 16.06 З  7
{14} 
2 км  гроза с сильным дождем, дымка  10/10 1500 м  +19.0  +19.0  100  +20  +20    1011.8  969.7         
02:42 16.06 З  5
{13} 
3 км  гроза с сильным дождем, дымка  10/10 1500 м  +19.0  +19.0  100  +20  +20    1011.4  969.4         
02:47 16.06 СЗ  4
{9} 
4 км  гроза с сильным дождем, дымка  10/10 1500 м  +19.0  +19.0  100  +20  +20    1011.4  969.4         
02:50 16.06 СЗ  5
{8} 
6 км  гроза с дождем, дымка  10/10 90 м  +19.0  +19.0  100  +20  +20    1011.4  969.4         
02:56 16.06 СЗ  10 км  гроза с сильным дождем, дымка  2/2 90 м  +18.7  +18.7  100  +19  +19    1011.4  969.4         
02:59 16.06 С  11 км  дождь, гроза  10/10 1800 м  +19.0  +19.0  100  +20  +20    1011.4  969.4         
03:12 16.06 С  16 км  гроза со слабым дождем  10/0 2250 м
[средняя] 
+19.0  +19.0  100  +20  +20    1011.0  969.0         
03:56 16.06 С  6
{9} 
16 км  гроза со слабым дождем  10/0 2400 м
[средняя] 
+19.7  +18.5  93  +22  +22  комфорт  1008.9  967.1         
04:01 16.06 С  7
{9} 
16 км  слабый дождь  10/0 2250 м
[средняя] 
+20.0  +19.0  94  +23  +23  комфорт  1009.3  967.4         
04:03 16.06 СВ  16 км  слабый дождь  8/0 2250 м
[средняя] 
+20.0  +19.0  94  +22  +22  комфорт  1009.3  967.4         
04:45 16.06 ЮВ  16 км    8/0 2850 м
[средняя] 
+19.0  +19.0  100  +21  +21  комфорт  1008.9  967.1         
04:51 16.06 З  16 км  слабый дождь  10/0 2850 м
[средняя] 
+19.0  +19.0  100  +22  +22  комфорт  1008.9  967.1         
04:56 16.06 ЮЗ  5
{8} 
16 км  слабый дождь, гроза  10/0 2850 м
[средняя] 
+19.1  +19.1  100  +21  +21  комфорт  1009.3  967.4  +18.5  +32.1  12.2   
05:35 16.06 В  13 км  гроза с дождем  10/2 1350 м
[средняя] 
+19.0  +19.0  100  +21  +21  комфорт  1010.9  969.0         
05:50 16.06 В  16 км  дождь  10/0 2700 м
[средняя] 
+19.0  +19.0  100  +21  +21  комфорт  1012.3  970.3         
05:56 16.06 В  16 км  дождь  10/0 2700 м
[средняя] 
+19.2  +19.2  100  +22  +22  комфорт  1011.9  970.0         
06:17 16.06 В  16 км  гроза со слабым дождем  н/о  +19.0  +19.0  100  +21  +21  комфорт  1011.6  969.7         
06:22 16.06 СВ  16 км  слабый дождь, гроза  н/о  +19.0  +19.0  100  +21  +21  комфорт  1011.3  969.4         
06:56 16.06 СВ  16 км  слабый дождь  5/5 1800 м
[средняя] 
+18.6  +18.6  100  +20  +20    1008.5  966.8         
07:03 16.06 СВ  16 км    2/2 1800 м
[средняя] 
+19.0  +19.0  100  +21  +21  комфорт  1008.2  966.4         
07:56 16.06   16 км    н/о  +18.4  +18.4  100  +19  +19    1008.5  966.8         
08:56 16.06 Ю  16 км    10/0 3600 м
[средняя] 
+18.2  +18.2  100  +19  +19    1007.9  966.1         
09:56 16.06   16 км    н/о  +17.8  +17.8  100  +18  +18    1008.6  966.8         
10:56 16.06 СВ  16 км    10/0 3900 м
[средняя] 
+18.0  +18.0  100  +18  +18    1010.6  968.7  +17.5  +19.3     
11:56 16.06 В  16 км    2/0 3900 м
[средняя] 
+18.8  +18.8  100  +21  +21  комфорт  1012.0  970.0         
12:56 16.06 ЮВ  16 км    10/0 3900 м
[средняя] 
+20.5  +20.5  100  +25  +26  комфорт  1012.7  970.7         
13:56 16.06 В  16 км    2/0 3600 м
[средняя] 
+23.1  +19.8  82  +30  +34  очень
душно 
1011.9  970.0         
14:56 16.06 СЗ  16 км    10/5 660 м
[средняя] 
+23.7  +20.2  81  +29  +30  душно  1012.6  970.3         
15:56 16.06   16 км    8/0 3000 м
[средняя] 
+23.7  +20.0  80  +29  +38  душно  1012.2  970.0         
16:01 16.06   16 км  слабая морось  8/2 1650 м
[средняя] 
+23.0  +20.0  83  +30  +39  очень
душно 
1012.2  970.0         
16:45 16.06   16 км    8/2 1470 м
[средняя] 
+24.0  +20.0  78  +29  +39  душно  1011.5  969.4         
16:48 16.06   16 км  слабая морось  8/2 1470 м
[средняя] 
+24.0  +20.0  78  +29  +39  душно  1011.8  969.7         
16:56 16.06   16 км  слабая морось  8/2 1470 м
[средняя] 
+24.0  +19.9  78  +29  +39  душно  1011.8  969.7  +18.0  +24.2     
16:58 16.06   16 км    8/2 1470 м
[средняя] 
+24.0  +20.0  78  +29  +39  душно  1011.8  969.7         
17:19 16.06   16 км  слабая морось  8/0 2850 м
[средняя] 
+25.0  +20.0  74  +31  +43  очень
душно 
1011.2  969.0         

 

Местоположение метеостанции Henry Post Army Airfield: широта 34.6000 долгота -98.4000 высота над уровнем моря 362 м.

В архиве по умолчанию представлена погода в Форт Силл за последние 1-2 суток. Обновление информации о фактической погоде в базе происходит ежечасно! Архивные данные за месяц целиком и за предыдущие месяцы Вы можете получить, выбрав интересующий диапазон дат из раскрывающегося списка и нажав кнопку "Ввод!".

Внимание! Архив погоды МЕТАР в базе сайта хранится не более 60 дней. Нет смысла пытаться выбрать более раннюю дату.

Внимание! Время в таблицах - всемирное. Для получения местного времени необходимо прибавить поправку, которая в Форт Силл равна -6 ч.

Ветер - указаны скорость ветра в м/с и направление, откуда дует ветер: С - северный, СВ - северо-восточный, В - восточный, ЮВ - юго-восточный, Ю - южный, ЮЗ - юго-западный, З - западный, СЗ - северо-западный.
Видимость - горизонтальная дальность видимости в метрах или километрах. При видимости от 1 до 10 км при отсутствии осадков обычно наблюдается дымка, при ухудшении видимости до 1 км и менее - туман. В сухую погоду видимость может ухудшаться дымом, пылью или мглою.
Атмосферные явления - указаны явления, наблюдавшиеся в указанный момент времени.
Облачность - указаны через наклонную черту верхняя и нижняя облачность в баллах и высота нижней границы облаков в метрах. Внимание: облачность, как и прочие метеорологические величины в США измеряются автоматическими метеостанциями. Указанные значения в баллах носят условный характер и показывают процент времени, в течение которого, в среднем, лазерный луч высотомера отражался от облаков обратно.
T - Температура воздуха - температура, измеренная на высоте 2 м над землей.
Td - Температура точки росы - температура, при понижении до которой содержащийся в воздухе водяной пар достигнет насыщения.
f - Относительная влажность воздуха - влажноcть воздуха, измеренная на высоте 2 м над землей.
Te - Эффективная температура - температура, которую ощущает одетый по сезону человек в тени. Характеристика душности погоды. При расчете учитывается влияние влажности воздуха и скорости ветра на теплоощущения человека.
Tes - Эффективная температура на солнце - температура, которую ощущает человек, с поправкой на солнечный нагрев. Характеристика знойности погоды. Зависит от высоты солнца над горизонтом, облачности и скорости ветра. Ночью, в пасмурную погоду, а также при ветре 12 м/с и более поправка равна нулю.
P - Атмосферное давление - приведенное к уровню моря атмосферное давление.
Po - Атмосферное давление - измеренное на уровне метеостанции атмосферное давление.
Tmin - Минимальная температура - минимум температуры воздуха на высоте 2 м над землей.
Tmax - Максимальная температура - максимум температуры воздуха на высоте 2 м над землей.
R - Количество осадков - Количество выпавших осадков за 3 или 6 часов, мм.
SD - Снежный покров - Высота снежного покрова, см.